COSMOS 778

导读 | 星芒AI

COSMOS 778 是苏联于1975年发射的一颗军用侦察卫星,属于“宇宙”卫星系列。该卫星主要用于电子情报收集和监视任务,具体任务细节未公开。它运行在近地轨道,最终因自然衰变再入大气层。作为冷战时期苏联航天活动的一部分,COSMOS 778 体现了当时苏联在空间侦察和监视技术方面的发展水平。

基本信息
目录编号:
8419
目录名称:
COSMOS 778
国际标识:
1975-103A
轨道中心:
EARTH
卫星名称:
COSMOS 778
卫星全名:
--
卫星状态:
在轨 (已飞行18257 天)
发射日期:
1975-11-04 UTC
国别 :
俄罗斯(独联体) (CIS)
星等 :
--
轨道信息
数据来源 国际轨道数据
星历时间: 2025-10-28T19:22:05+0800
19小时前
查看轨道信息
半长轴: 7360.436km
偏心率: 0.0022704
轨道倾角: 82.971°
近地点辐角 139.682°
升交点赤经 104.847°
平近点角 274.238°
近地点: 965.589km
远地点: 999.013km
周期: 104.741分钟
每日圈数: 13.748253
详细信息
使用方式:
暂无
2D轨道图
3D轨道图
轨道高度分析图
轨道倾角分析图
轨道综合分析图
查看轨道综合分析图